Location: Pagani
(40.7500°N, 14.6167°E)
Time: 16:00:58
(UTC+00:00)

Cosmos 540 Rocket - Pass Details

Date: 15 May 2026
Orbit: 735 x 747 km, 74.1° (Epoch: 10 June)

Event Time Altitude Azimuth Distance (km) Brightness Sun altitude
Exits shadow 20:28:07 43° 116° (ESE) 1,036 3.7 -20.8°
Maximum altitude 20:28:31 44° 103° (ESE) 1,024 3.8 -20.9°
Drops below altitude 10° 20:33:22 10° 32° (NNE) 2,269 6.2 -21.4°
Sets 20:35:49 0° 26° (NNE) 3,197 7.1 -21.7°
